Temp
23 22 21 20 20 20 21 21 20 21 22 22 21 21 20 20 19 20 19 19 18 18
24 23 21 22 22 21 21 21 21 21 21 21 21 21 21 20 20 19 19 19 17 17
24 24 23 23 22 22 21 21 22 22 22 21 21 20 20 20 19 20 19 18 17 16
21 23 23 22 22 23 22 22 22 22 22 22 21 20 21 21 21 20 19 18 19 17
21 23 22 22 22 22 22 22 21 22 21 22 21 20 20 21 20 20 20 20 20 20
22 22 23 22 22 23 22 22 21 21 22 22 21 21 20 20 21 20 20 20 20 20
21 21 22 23 23 22 21 21 19 20 20 21 21 20 20 20 20 20 20 20 20 20
23 23 22 22 22 22 22 20 20 20 20 20 20 20 20 19 18 19 18 20 20 20
22 20 20 21 21 21 21 21 20 20 19 20 20 19 20 20 20 19 20 18 18 18
20 20 22 22 22 22 22 22 21 21 21 20 19 20 21 21 21 20 19 18 20 19
22 22 22 22 21 21 21 21 21 20 21 20 19 20 20 20 20 20 19 19 20 20
21 21 21 21 21 21 21 21 21 20 20 20 20 20 19 20 20 18 17 18 20 20
21 21 21 20 20 20 19 19 17 17 18 20 20 20 20 19 19 18 18 18 18 20
21 21 21 20 20 19 19 18 18 18 18 19 19 19 19 19 18 17 18 18 19 19
Height
1571 1573 1575 1576 1577 1579 1580 1580 1578 1576 1575 1574 1574 1573 1573 1572 1572 1570 1568 1566 1565 1565
1567 1570 1571 1572 1573 1573 1573 1573 1572 1571 1570 1568 1568 1568 1567 1567 1566 1564 1562 1559 1557 1557
1563 1566 1566 1567 1568 1569 1569 1568 1567 1566 1565 1564 1563 1562 1561 1561 1561 1559 1558 1553 1548 1550
1560 1560 1560 1560 1563 1565 1564 1563 1563 1561 1561 1560 1559 1558 1557 1557 1556 1555 1554 1552 1548 1548
1554 1555 1556 1557 1559 1559 1559 1558 1557 1557 1557 1556 1555 1555 1554 1553 1552 1552 1551 1550 1548 1547
1551 1551 1552 1553 1554 1555 1555 1553 1553 1553 1552 1552 1550 1550 1550 1550 1548 1548 1547 1547 1546 1545
1548 1549 1549 1550 1551 1550 1549 1549 1550 1550 1548 1547 1546 1546 1546 1545 1544 1544 1543 1542 1541 1540
1546 1547 1548 1547 1547 1545 1545 1546 1546 1545 1544 1543 1542 1542 1542 1541 1540 1539 1538 1537 1536 1534
1543 1544 1545 1545 1545 1545 1544 1543 1541 1541 1540 1539 1538 1537 1537 1536 1534 1533 1532 1532 1532 1530
1543 1544 1544 1544 1544 1543 1541 1539 1538 1536 1535 1534 1533 1532 1532 1530 1528 1527 1527 1526 1526 1525
1542 1542 1542 1542 1541 1539 1538 1537 1535 1534 1532 1530 1529 1528 1526 1524 1523 1522 1521 1520 1519 1519
1539 1539 1540 1538 1537 1537 1535 1533 1531 1529 1527 1525 1524 1521 1521 1519 1518 1517 1515 1514 1512 1512
1537 1537 1537 1536 1534 1532 1530 1529 1527 1525 1522 1518 1516 1515 1513 1513 1511 1510 1509 1509 1506 1504
1533 1533 1533 1532 1530 1527 1525 1522 1520 1518 1515 1511 1508 1505 1505 1504 1502 1503 1502 1501 1501 1502
Wind_Speed
20 18 16 15 15 14 13 13 15 18 21 24 23 22 22 20 18 22 23 25 21 18
19 18 17 18 18 18 19 17 16 15 19 23 25 24 22 21 21 22 20 23 24 20
20 19 22 24 21 19 19 17 14 17 18 16 16 17 18 18 16 14 15 16 16 19
11 13 19 21 21 22 20 19 17 13 12 15 12 12 11 10 11 12 9 10 10 5
11 14 17 17 18 20 20 17 14 13 13 15 13 12 12 10 11 12 11 10 5 6
15 12 13 14 14 16 18 18 15 15 16 17 15 15 16 14 13 14 15 13 14 15
10 9 8 10 15 17 16 15 15 14 15 17 16 16 16 17 17 17 17 16 17 18
9 9 10 10 10 11 13 14 14 13 13 14 15 15 14 14 15 17 17 20 21 22
8 4 4 5 5 7 8 11 12 13 14 15 14 16 19 19 19 20 20 19 18 19
4 4 5 7 8 10 12 13 14 14 16 18 16 19 22 23 22 22 19 18 19 16
5 6 7 10 12 14 15 16 16 16 17 18 15 18 18 19 19 20 20 20 20 20
5 7 9 10 13 15 17 19 21 20 21 20 20 23 20 21 21 18 19 20 22 20
7 9 11 15 17 18 20 19 18 19 22 25 28 28 28 25 25 20 20 19 22 24
9 14 20 22 23 25 26 27 27 27 28 29 28 28 28 27 27 23 21 22 23 22
Wind_Direction
233 241 248 249 249 253 261 265 266 271 275 276 278 283 289 292 293 294 295 293 281 280
236 242 242 251 259 274 270 269 278 291 284 278 278 278 281 289 295 298 299 296 281 265
239 254 252 257 264 279 274 278 289 290 294 294 287 283 280 285 290 299 316 314 300 248
226 257 246 255 260 269 291 284 280 276 282 294 296 293 287 277 272 297 297 334 356 315
274 278 252 262 254 271 281 278 269 264 273 283 287 286 281 279 277 287 281 303 318 355
274 260 237 246 262 266 274 273 260 265 276 284 281 281 278 279 277 281 278 274 269 274
243 238 242 254 265 264 274 270 254 260 270 277 275 271 275 277 276 273 278 283 277 271
241 240 257 262 270 271 257 255 264 266 270 275 270 269 273 274 268 265 269 279 285 286
264 260 277 297 297 290 281 276 273 273 274 271 271 266 274 267 272 268 269 273 276 279
203 244 276 299 310 314 312 308 302 293 288 284 277 277 276 274 272 272 273 270 278 274
249 266 292 306 309 309 310 309 306 300 295 290 290 284 287 290 288 285 279 276 283 278
253 276 290 298 304 306 307 304 300 295 292 289 285 286 284 281 282 280 278 279 280 281
298 314 318 318 318 316 314 313 303 297 291 288 288 288 286 285 282 277 276 275 283 284
302 310 311 310 312 314 315 310 308 302 297 294 293 289 286 285 284 283 279 273 272 272